Погода в Мериде

Мексика     20°57′11″N   89°36′35″W
темп.,
°C
ветер,
м/с
пор.,
м/с
влажн.,
%
обл.,
%
осадки,
мм/ч
давл.,
гПа
погр.,
м
18 апреля, вс
вс1801:00+26юв51175100 0.0 1009510
04:00+24юв4108948 0.0 1008529
07:00+26ююв587764 0.0 1010735
10:00+31ююв67550 0.0 10111054
13:00+38ююв443379 0.0 10082713
16:00+28ссз367272 4.0 1007293
19:00+27ссз137722 5.8 1009268
22:00+23юв359230 2.2 1012125
19 апреля, пн
пн1901:00+23ююз23890 2.6 101259
04:00+22ю24911 0.0 1011114
07:00+22ююз23900 0.0 101292
10:00+29ююз23594 0.0 1013750
13:00+35ююз244092 0.0 10102391
16:00+28ссз477190 0.3 1009357
19:00+28с357128 0.3 1010461
22:00+25ссв12840 0.2 101291
20 апреля, вт
вт2001:00+24в22860 0.2 101235
04:00+23вюв24851 0.0 101088
07:00+24ююв24890 0.0 1012149
10:00+31ююв345787 0.0 10131014
13:00+35ю334199 0.1 10112352
16:00+28с566970 0.3 1010356
19:00+27с457829 1.9 1012259
22:00+25ссв25881 3.5 1013119
21 апреля, ср
ср2101:00+24всв239022 3.5 101480
04:00+23вюв24944 0.0 1013112
07:00+23вюв23955 0.0 1014118
10:00+29юв33664 0.6 1016836
13:00+32всв225376 2.2 10141542
16:00+32с545386 0.6 10131291
19:00+28св5867100 1.0 1014611
22:00+24вюв12854 0.6 101546
22 апреля, чт
чт2201:00+23вюв139044 0.6 101577
04:00+22юв26946 0.0 1014207
07:00+22в269645 0.0 1015223
10:00+29юв456317 0.0 10161238
13:00+34юв45367 0.1 10142250
16:00+36вюв343024 0.0 10112736
19:00+28св6116510 0.0 1013475
22:00+26в4107261 0.0 1015390